Location: Moscow
(55.7500°N, 37.5830°E)
Time: 17:56:46
(UTC+03:00)

Transit 2A - Pass Details

Date: 03 December 2021
Orbit: 591 x 967 km, 66.7° (Epoch: 21 January)

Event Time Altitude Azimuth Distance (km) Brightness Sun altitude
Rises 02:15:36 0° 232° (SW) 3,387 - -50.1°
Reaches altitude 10° 02:17:59 10° 235° (SW) 2,506 - -49.8°
Maximum altitude 02:23:51 70° 319° (NW) 977 - -49.2°
Exits shadow 02:29:37 13° 42° (NE) 2,493 9.1 -48.6°
Drops below altitude 10° 02:30:11 10° 43° (NE) 2,696 9.3 -48.6°
Sets 02:32:50 0° 46° (NE) 3,660 10.2 -48.3°
